Station PTAW1 - 9444090 - Port Angeles, WA Image indicating link to RSS feed of recent meteorological observations for station PTAW1


Conditions at PTAW1 as of
(8:36 am PDT)
1536 GMT on 05/25/2024:
     

Click on the graph icon in the table below to see a time series plot of the last five days of that observation.

5-day plot - Water Temperature Water Temperature (WTMP): 49.1 °F
5-day plot - Wind Speed at 10 Meters Wind Speed at 10 meters (WSPD10M): 7.8 kts
5-day plot - Wind Speed at 20 Meters Wind Speed at 20 meters (WSPD20M): 7.8 kts
NOS Water Level Observation Network Water Level
Previous observations
TIME
(PDT)
5-day plot - Wind Direction
WDIR
 
5-day plot - Wind Speed
WSPD
kts
5-day plot - Wind Gust
GST
kts
5-day plot - Wave Height
WVHT
ft
5-day plot - Dominant Wave Period
DPD
sec
5-day plot - Average Wave Period
APD
sec
5-day plot - Mean Wave Direction
MWD
 
5-day plot - Atmospheric Pressure
PRES
in
5-day plot - Pressure Tendency
PTDY
in
5-day plot - Air Temperature
ATMP
°F
5-day plot - Water Temperature
WTMP
°F
5-day plot - Dew Point
DEWP
°F
5-day plot - Salinity
SAL
psu
5-day plot - Visibility
VIS
nmi
5-day plot - Tide (above MLLW)
TIDE
ft
2024-05-25 08:30 am---------- 49.1----
2024-05-25 08:24 amWNW 7.0 8.9------- 49.1----
2024-05-25 08:18 amWNW 8.0 9.9------- 49.1----
2024-05-25 08:12 am NW 8.0 9.9------- 48.9----
2024-05-25 08:06 am NW 7.0 9.9------- 48.9----
2024-05-25 08:00 amWNW 7.0 12.0------- 48.7----
2024-05-25 07:54 amWNW 8.0 12.0------- 48.6----
2024-05-25 07:48 am NW 7.0 11.1------- 48.6----
2024-05-25 07:42 amWNW 8.9 12.0------- 48.9----
2024-05-25 07:36 am-------29.88- 49.5 48.7----
2024-05-25 07:30 am-------29.88- 49.1 49.3----
2024-05-25 07:24 amWNW 5.1 7.0----29.88- 48.6 49.3----
2024-05-25 07:18 am- 0.0 1.9----29.88- 48.2 49.3----
2024-05-25 07:12 am S 1.9 1.9----29.88- 48.2 49.3----
2024-05-25 07:06 am S 1.0 1.9----29.88- 48.0 49.3----
2024-05-25 07:00 am S 1.0 1.9----29.88+0.02 47.8 49.5----
2024-05-25 06:54 am S 1.0 1.9----29.88- 47.8 49.5----
2024-05-25 06:48 amSSW 1.9 2.9----29.88- 47.7 49.5----
2024-05-25 06:42 amSSW 2.9 2.9----29.88- 47.3 49.6----
2024-05-25 06:36 am-------29.88- 47.1 49.6----
2024-05-25 06:30 am-------29.87- 46.9 49.6----
2024-05-25 06:24 am SW 4.1 5.1----29.87- 46.6 49.6----
2024-05-25 06:18 am SW 5.1 5.1----29.87- 46.4 49.6----
2024-05-25 06:12 am SW 5.1 5.1----29.87- 46.4 49.6----
2024-05-25 06:06 amWSW 4.1 6.0----29.87- 46.6 49.6----
2024-05-25 06:00 am SW 4.1 6.0----29.87+0.01 46.0 49.8----
2024-05-25 05:54 am SW 4.1 5.1----29.86- 45.7 49.8----
2024-05-25 05:48 amSSW 4.1 6.0----29.86- 45.7 49.8----
2024-05-25 05:42 am SW 5.1 6.0----29.86- 46.0 49.8----
2024-05-25 05:36 am-------29.86- 45.9 49.8----
2024-05-25 05:30 am-------29.86- 46.2 49.8----
2024-05-25 05:24 amSSW 2.9 4.1----29.86- 46.4 49.8----
2024-05-25 05:18 amSSW 4.1 5.1----29.86- 46.6 49.6----
2024-05-25 05:12 amSSW 4.1 5.1----29.86- 46.9 49.3----
2024-05-25 05:06 am SW 4.1 5.1----29.86- 47.3 49.3----
2024-05-25 05:00 amWSW 4.1 6.0----29.86+0.01 47.5 49.3----
2024-05-25 04:54 amWSW 4.1 7.0----29.86- 47.1 49.3----
2024-05-25 04:48 am SW 4.1 6.0----29.86- 47.1 49.3----
2024-05-25 04:42 amWSW 4.1 6.0----29.86- 47.1 49.1----
2024-05-25 04:36 am-------29.86- 47.1 49.1----
2024-05-25 04:30 am-------29.86- 47.5 49.1----
2024-05-25 04:24 amWSW 2.9 7.0----29.86- 47.5 49.1----
2024-05-25 04:18 amWSW 5.1 8.0----29.86- 47.5 49.1----
2024-05-25 04:12 am SW 4.1 7.0----29.86- 47.3 49.1----
2024-05-25 04:06 amWSW 5.1 8.0----29.86- 47.7 49.1----
2024-05-25 04:00 am SW 4.1 7.0----29.86+0.02 47.5 49.1----
2024-05-25 03:54 amSSW 4.1 8.9----29.86- 47.5 49.1----
2024-05-25 03:48 am SW 2.9 5.1----29.85- 47.5 49.1----
2024-05-25 03:42 am S 1.9 2.9----29.85- 47.5 49.1----
2024-05-25 03:36 am-------29.85- 47.8 49.1----
2024-05-25 03:30 am-------29.85- 47.7 49.1----
2024-05-25 03:24 am SW 2.9 5.1----29.85- 47.8 48.9----
2024-05-25 03:18 am SW 2.9 5.1----29.85- 48.2 48.9----
2024-05-25 03:12 amWSW 1.9 6.0----29.85- 49.3 48.9----
2024-05-25 03:06 amWNW 5.1 7.0----29.85- 49.1 48.9----
2024-05-25 03:00 amWNW 6.0 8.0----29.85- 49.6 48.9----
2024-05-25 02:54 amWNW 7.0 8.0----29.85- 49.5 48.9----
2024-05-25 02:48 amWNW 7.0 8.0----29.85- 49.5 48.9----
2024-05-25 02:42 amWNW 6.0 8.0----29.85- 49.5 48.9----
2024-05-25 02:36 am-------29.85-- 48.9----
2024-05-25 02:30 am-------29.85-- 48.9----
2024-05-25 02:24 am W 5.1 8.0----29.85-- 49.1----
2024-05-25 02:18 am W 5.1 7.0----29.85-- 49.3----
2024-05-25 02:12 am W 5.1 6.0----29.85-- 49.3----
2024-05-25 02:06 am W 5.1 9.9----29.85-- 49.3----
2024-05-25 02:00 amWNW 8.0 11.1----29.85+0.00- 49.5----
2024-05-25 01:54 amWNW 8.9 12.0----29.85-- 49.8----
2024-05-25 01:48 amWNW 8.9 12.0----29.84-- 49.8----
2024-05-25 01:42 amWNW 8.9 12.0----29.84-- 49.8----
2024-05-25 01:36 am-------29.84- 49.3 49.8----
2024-05-25 01:30 am-------29.84- 49.1 49.8----
2024-05-25 01:24 am W 6.0 12.0----29.84- 49.1 49.8----
2024-05-25 01:18 am W 6.0 11.1----29.84- 49.3 49.8----
2024-05-25 01:12 am W 7.0 9.9----29.84- 49.3 49.8----
2024-05-25 01:06 am W 7.0 9.9----29.84- 49.5 49.8----
2024-05-25 01:00 am W 6.0 11.1----29.84+0.00 49.5 49.8----
2024-05-25 12:54 amWNW 9.9 12.0----29.84- 49.5 49.8----
2024-05-25 12:48 am W 8.9 11.1----29.84- 49.5 49.8----
2024-05-25 12:42 amWNW 8.9 13.0----29.84- 49.5 49.8----
2024-05-25 12:36 am---------- 49.8----
2024-05-25 12:30 am---------- 50.0----
2024-05-25 12:24 am W 5.1 9.9------- 50.0----
2024-05-25 12:18 am W 5.1 8.9------- 50.0----
2024-05-25 12:12 am W 6.0 9.9------- 50.0----
2024-05-25 12:06 am W 5.1 8.9------- 50.0----
2024-05-25 12:00 am W 8.9 11.1------- 50.0----
2024-05-24 11:54 pm W 8.9 11.1------- 50.0----
2024-05-24 11:48 pm W 7.0 11.1------- 50.0----
2024-05-24 11:42 pm W 7.0 9.9------- 50.0----
2024-05-24 11:36 pm-------29.84-- 50.0----
2024-05-24 11:30 pm-------29.85-- 50.0----
2024-05-24 11:24 pm W 2.9 7.0----29.85-- 50.0----
2024-05-24 11:18 pm W 5.1 11.1----29.85-- 50.2----
2024-05-24 11:12 pmWNW 9.9 12.0----29.85-- 50.2----
2024-05-24 11:06 pmWNW 11.1 14.0----29.85-- 50.2----
2024-05-24 11:00 pmWNW 13.0 18.1----29.85+0.01- 50.2----
2024-05-24 10:54 pm NW 11.1 15.0----29.85-- 50.2----
2024-05-24 10:48 pm NW 8.9 12.0----29.85-- 50.2----
2024-05-24 10:42 pm NW 7.0 9.9----29.85-- 50.2----
2024-05-24 10:36 pm-------29.85- 50.7 50.2----
2024-05-24 10:30 pm-------29.85- 50.7 50.2----
2024-05-24 10:24 pm- 0.0 1.9----29.85- 50.7 50.2----
2024-05-24 10:18 pm- 0.0 1.0----29.85- 50.7 50.2----
2024-05-24 10:12 pm S 1.0 1.9----29.85- 50.7 50.2----
2024-05-24 10:06 pm SW 1.0 1.9----29.85- 50.7 50.2----
2024-05-24 10:00 pm S 1.0 1.9----29.85+0.01 50.5 50.2----
2024-05-24 09:54 pm S 1.9 2.9----29.85- 50.5 50.2----
2024-05-24 09:48 pmSSE 1.9 2.9----29.85- 50.7 50.2----
2024-05-24 09:42 pm S 1.0 1.9----29.85- 50.5 50.2----
2024-05-24 09:36 pm-------29.84- 50.4 50.2----
2024-05-24 09:30 pm-------29.84- 50.2 50.2----
2024-05-24 09:24 pmWNW 1.9 2.9----29.85- 50.2 50.2----
2024-05-24 09:18 pmNNW 2.9 4.1----29.85- 50.2 50.2----
2024-05-24 09:12 pm NW 1.9 2.9----29.85- 50.0 50.2----
2024-05-24 09:06 pmNNW 2.9 4.1----29.85- 50.2 50.0----
2024-05-24 09:00 pm N 2.9 6.0----29.84+0.00 50.5 50.0----
2024-05-24 08:54 pmNNW 2.9 5.1----29.84- 50.5 50.0----
2024-05-24 08:48 pmNNW 2.9 5.1----29.84- 50.9 50.0----
2024-05-24 08:42 pmNNW 2.9 5.1----29.84- 51.3 49.8----
2024-05-24 08:36 pm-------29.84- 51.3 49.8----
2024-05-24 08:30 pm-------29.84- 51.3 49.8----
2024-05-24 08:24 pm- 0.0 0.0----29.84- 51.3 49.8----
2024-05-24 08:18 pm SW 1.9 2.9----29.84- 51.4 50.0----
2024-05-24 08:12 pm- 0.0 1.0----29.84- 51.3 50.0----
2024-05-24 08:06 pm- 0.0 1.0----29.84- 50.9 50.0----
2024-05-24 08:00 pm- 0.0 1.9----29.84-0.01 50.9 50.0----
2024-05-24 07:54 pmNNW 1.9 2.9----29.84- 50.9 50.0----
2024-05-24 07:48 pm N 2.9 4.1----29.84- 50.9 50.0----
2024-05-24 07:42 pmNNW 1.9 1.9----29.84- 50.7 50.0----
2024-05-24 07:36 pm-------29.84- 50.7 50.0----
2024-05-24 07:30 pm-------29.84- 50.5 49.8----
2024-05-24 07:24 pm NW 2.9 2.9----29.84- 50.5 49.8----
2024-05-24 07:18 pmWNW 1.9 1.9----29.84- 50.4 49.8----
2024-05-24 07:12 pmNNW 1.9 2.9----29.84- 50.2 49.8----
2024-05-24 07:06 pmNNW 4.1 5.1----29.84- 50.4 50.0----
2024-05-24 07:00 pm W 1.0 1.9----29.84-0.03 51.3 50.0----
2024-05-24 06:54 pm- 0.0 1.9----29.84- 50.5 50.0----
2024-05-24 06:48 pm NW 1.0 1.9----29.84- 50.5 50.0----
2024-05-24 06:42 pm N 1.9 1.9----29.84- 50.9 50.0----
2024-05-24 06:36 pm-------29.84- 50.5 50.0----
2024-05-24 06:30 pm-------29.84- 50.7 50.2----
2024-05-24 06:24 pmNNE 1.9 2.9----29.84- 50.7 50.2----
2024-05-24 06:18 pm SE 1.0 1.9----29.84- 50.5 50.2----
2024-05-24 06:12 pm SE 1.0 1.9----29.84- 50.5 50.2----
2024-05-24 06:06 pm- 0.0 1.9----29.84- 50.4 50.4----
2024-05-24 06:00 pmNNE 1.9 2.9----29.84-0.03 50.4 50.4----
2024-05-24 05:54 pm NW 1.9 2.9----29.85- 49.8 50.4----
2024-05-24 05:48 pm NW 2.9 5.1----29.85- 49.8 50.4----
2024-05-24 05:42 pm N 4.1 5.1----29.85- 50.4 50.5----
2024-05-24 05:36 pm N 2.9 4.1----29.85- 50.4 50.5----
2024-05-24 05:30 pm N 4.1 5.1----29.85- 50.4 50.5----
2024-05-24 05:24 pm N 4.1 5.1----29.85- 50.9 50.5----
2024-05-24 05:18 pm N 1.9 2.9----29.85- 50.7 50.5----
2024-05-24 05:12 pmNNE 1.9 2.9----29.85- 50.4 50.5----
2024-05-24 05:06 pm E 1.9 2.9----29.85- 50.2 50.5----
2024-05-24 05:00 pm NE 2.9 4.1----29.85-0.03 50.0 50.5----
2024-05-24 04:36 pm-------29.85- 49.8 50.7----
2024-05-24 04:30 pm-------29.86- 50.5 50.7----
2024-05-24 04:24 pmNNE 1.0 1.9----29.86- 50.0 50.7----
2024-05-24 04:18 pmNNE 1.9 2.9----29.86- 50.2 50.7----
2024-05-24 04:12 pm N 1.9 1.9----29.86- 49.8 50.7----
2024-05-24 04:06 pm N 1.0 1.9----29.86- 49.6 50.7----
2024-05-24 04:00 pm N 1.0 1.0----29.87-0.02 49.6 50.7----
2024-05-24 03:54 pm- 0.0 1.0----29.87- 50.0 50.7----
2024-05-24 03:48 pmNNE 1.0 1.9----29.87- 49.8 50.7----
2024-05-24 03:42 pm N 1.9 1.9----29.87- 50.0 50.9----
2024-05-24 03:36 pm-------29.87- 50.2 50.9----
2024-05-24 03:30 pm-------29.87- 50.4 50.9----
2024-05-24 03:24 pmNNE 1.9 2.9----29.87- 49.8 50.9----
2024-05-24 03:18 pm N 1.9 1.9----29.88- 50.0 51.1----
2024-05-24 03:12 pm N 1.0 2.9----29.88- 50.2 51.1----
2024-05-24 03:06 pm N 1.9 2.9----29.88- 50.0 51.1----
2024-05-24 03:00 pm N 2.9 2.9----29.88-0.02 49.8 51.1----
2024-05-24 02:54 pm N 1.9 4.1----29.88- 50.2 51.1----
2024-05-24 02:48 pm N 2.9 4.1----29.88- 50.2 51.1----
2024-05-24 02:42 pm N 2.9 4.1----29.88- 50.4 51.1----
2024-05-24 02:36 pm-------29.88- 50.4 51.1----
2024-05-24 02:30 pm-------29.88- 49.5 51.1----
2024-05-24 02:24 pm N 2.9 5.1----29.88- 49.8 51.1----
2024-05-24 02:18 pm N 1.9 4.1----29.88- 49.6 51.1----
2024-05-24 02:12 pm N 4.1 5.1----29.88- 49.8 51.1----
2024-05-24 02:06 pmNNE 1.9 2.9----29.88- 49.3 51.1----
2024-05-24 02:00 pmNNE 2.9 2.9----29.88-0.02 49.1 50.9----
2024-05-24 01:54 pmNNE 2.9 4.1----29.88- 49.3 50.9----
2024-05-24 01:48 pmNNE 2.9 4.1----29.88- 48.9 50.9----
2024-05-24 01:42 pm NE 2.9 2.9----29.88- 48.9 50.9----
2024-05-24 01:36 pm-------29.88- 49.3 50.9----
2024-05-24 01:30 pm-------29.88- 48.9 50.7----
2024-05-24 01:24 pm E 2.9 4.1----29.88- 48.9 50.7----
2024-05-24 01:18 pm E 2.9 4.1----29.88- 48.7 50.7----
2024-05-24 01:12 pm E 2.9 4.1----29.88- 48.6 50.5----
2024-05-24 01:06 pmESE 2.9 4.1----29.89- 48.6 50.5----
2024-05-24 01:00 pmESE 2.9 4.1----29.89-0.02 48.4 50.5----
2024-05-24 12:54 pm E 1.9 2.9----29.89- 48.6 50.5----
2024-05-24 12:48 pm E 2.9 4.1----29.89- 48.7 50.5----
2024-05-24 12:42 pmESE 2.9 2.9----29.89- 48.4 50.5----
2024-05-24 12:36 pm-------29.89- 48.6 50.4----
2024-05-24 12:30 pm-------29.89- 48.4 50.4----
2024-05-24 12:24 pmENE 1.9 4.1----29.89- 48.7 50.4----
2024-05-24 12:18 pmENE 2.9 4.1----29.89- 48.2 50.4----
2024-05-24 12:12 pmNNE 2.9 2.9----29.89- 48.6 50.4----
2024-05-24 12:06 pmNNE 1.9 2.9----29.89- 48.6 50.4----
2024-05-24 12:00 pmNNE 2.9 4.1----29.89-0.03 48.4 50.4----
2024-05-24 11:54 amNNE 2.9 4.1----29.90- 48.6 50.4----
2024-05-24 11:48 amNNE 2.9 4.1----29.90- 48.6 50.4----
2024-05-24 11:42 amNNE 1.9 4.1----29.90- 48.6 50.4----
2024-05-24 11:36 am-------29.90- 48.2 50.4----
2024-05-24 11:30 am-------29.90- 48.7 50.4----
2024-05-24 11:24 am E 1.9 4.1----29.90- 48.0 50.4----
2024-05-24 11:18 amENE 1.9 4.1----29.90- 48.0 50.4----
2024-05-24 11:12 am NE 2.9 4.1----29.90- 47.8 50.4----
2024-05-24 11:06 amENE 1.9 2.9----29.90- 48.0 50.4----
2024-05-24 11:00 amENE 1.9 2.9----29.90-0.02 48.0 50.4----
2024-05-24 10:54 am E 1.9 4.1----29.90- 47.8 50.4----
2024-05-24 10:48 amENE 1.9 2.9----29.91- 47.7 50.4----
2024-05-24 10:42 amNNE 2.9 2.9----29.91- 48.0 50.4----
2024-05-24 10:36 am-------29.91- 48.2 50.4----
2024-05-24 10:30 am-------29.91- 48.9 50.4----
2024-05-24 10:24 am N 1.9 4.1----29.91- 48.6 50.5----
2024-05-24 10:18 amNNW 2.9 4.1----29.91- 48.2 50.5----
2024-05-24 10:12 amNNW 2.9 5.1----29.91- 48.6 50.5----
2024-05-24 10:06 amNNW 2.9 5.1----29.91- 48.4 50.7----
2024-05-24 10:00 amNNW 2.9 4.1----29.91-0.02 48.4 50.7----
2024-05-24 09:54 am NW 2.9 4.1----29.91- 48.2 50.7----
2024-05-24 09:48 am NW 2.9 4.1----29.91- 48.0 50.7----
2024-05-24 09:42 am NW 2.9 2.9----29.91- 48.0 50.7----
2024-05-24 09:36 am-------29.92- 48.0 50.7----
2024-05-24 09:30 am-------29.92- 48.0 50.7----
2024-05-24 09:24 am NW 2.9 4.1----29.92- 48.2 50.7----
2024-05-24 09:18 am NW 2.9 5.1----29.92- 48.0 50.7----
2024-05-24 09:12 am NW 4.1 5.1----29.92- 48.0 50.9----
2024-05-24 09:06 am NW 5.1 7.0----29.92- 48.2 50.7----
2024-05-24 09:00 am NW 7.0 8.0----29.92-0.02 48.2 50.7----
2024-05-24 08:54 am NW 6.0 8.0----29.92- 48.4 50.7----